TimeCST,TemperatureF,Dew PointF,Humidity,Sea Level PressureIn,VisibilityMPH,Wind Direction,Wind SpeedMPH,Gust SpeedMPH,PrecipitationIn,Events,Conditions,WindDirDegrees,DateUTC
12:33 AM,33.8,30.2,87,29.84,10.0,SW,5.8,-,0.00,,Overcast,220,2012-02-14 06:33:00
12:53 AM,34.0,30.9,89,29.87,10.0,SW,5.8,-,0.00,,Overcast,220,2012-02-14 06:53:00
1:53 AM,35.6,32.0,87,29.85,10.0,WSW,5.8,-,N/A,,Overcast,240,2012-02-14 07:53:00
2:14 AM,35.6,32.0,87,29.85,10.0,West,11.5,16.1,N/A,,Overcast,270,2012-02-14 08:14:00
2:53 AM,35.1,32.0,89,29.88,9.0,West,11.5,-,0.01,,Overcast,260,2012-02-14 08:53:00
3:02 AM,35.6,32.0,87,29.86,9.0,West,9.2,18.4,N/A,,Overcast,270,2012-02-14 09:02:00
3:53 AM,35.1,32.0,89,29.87,7.0,West,11.5,-,N/A,,Overcast,280,2012-02-14 09:53:00
4:53 AM,35.1,32.0,89,29.90,7.0,WNW,10.4,17.3,N/A,,Overcast,290,2012-02-14 10:53:00
5:53 AM,33.8,32.0,93,29.89,6.0,West,5.8,-,N/A,,Overcast,280,2012-02-14 11:53:00
6:53 AM,33.8,32.0,93,29.91,6.0,West,5.8,-,N/A,,Overcast,280,2012-02-14 12:53:00
7:13 AM,33.8,32.0,93,29.92,5.0,WNW,3.5,-,N/A,,Overcast,300,2012-02-14 13:13:00
7:53 AM,34.0,30.0,85,29.97,7.0,West,8.1,-,N/A,,Overcast,270,2012-02-14 13:53:00
8:53 AM,35.1,30.0,82,29.98,8.0,West,4.6,-,N/A,,Overcast,270,2012-02-14 14:53:00
9:53 AM,36.0,30.9,82,29.99,8.0,Variable,3.5,-,N/A,,Overcast,0,2012-02-14 15:53:00
10:31 AM,39.2,33.8,81,29.97,8.0,Calm,Calm,-,N/A,,Scattered Clouds,0,2012-02-14 16:31:00
10:53 AM,39.9,34.0,79,29.99,9.0,Calm,Calm,-,N/A,,Partly Cloudy,0,2012-02-14 16:53:00
11:53 AM,43.0,33.1,68,29.99,9.0,South,4.6,-,N/A,,Clear,170,2012-02-14 17:53:00
12:53 PM,45.0,35.1,68,29.97,10.0,SE,3.5,-,N/A,,Clear,130,2012-02-14 18:53:00
1:53 PM,48.0,35.1,61,29.95,10.0,Variable,3.5,-,N/A,,Clear,0,2012-02-14 19:53:00
2:53 PM,51.1,35.1,54,29.94,10.0,SE,6.9,-,N/A,,Clear,130,2012-02-14 20:53:00
3:53 PM,51.1,37.0,59,29.94,10.0,ESE,9.2,-,N/A,,Clear,120,2012-02-14 21:53:00
4:53 PM,50.0,37.0,61,29.95,10.0,ESE,6.9,-,N/A,,Clear,120,2012-02-14 22:53:00
5:53 PM,46.0,37.0,71,29.96,10.0,ESE,11.5,-,N/A,,Clear,120,2012-02-14 23:53:00
6:53 PM,42.1,35.1,76,29.96,10.0,SE,10.4,-,N/A,,Clear,130,2012-02-15 00:53:00
7:53 PM,39.0,34.0,82,29.96,10.0,SE,11.5,-,N/A,,Partly Cloudy,140,2012-02-15 01:53:00
8:53 PM,37.9,33.1,83,29.98,10.0,SE,12.7,-,N/A,,Mostly Cloudy,130,2012-02-15 02:53:00
9:53 PM,37.9,34.0,86,29.99,10.0,SE,10.4,-,N/A,,Scattered Clouds,130,2012-02-15 03:53:00
10:53 PM,37.9,35.1,89,29.99,10.0,SE,12.7,-,N/A,,Partly Cloudy,140,2012-02-15 04:53:00
11:53 PM,39.9,36.0,86,29.99,10.0,SSE,12.7,-,N/A,,Overcast,150,2012-02-15 05:53:00